Погода в Гладковке

Украина / Херсонская область     46°23′35″N   32°36′07″E
темп.,
°C
ветер,
м/с
пор.,
м/с
влажн.,
%
обл.,
%
осадки,
мм/ч
давл.,
гПа
погр.,
м
26 февраля, пт
пт2623:00+5з3492100 0.0 103078
02:00+4зсз239368 0.0 102924
05:00+5зсз239879 0.0 102837
08:00+6зюз339987 0.0 102795
11:00+8зюз468592 0.0 1027384
14:00+11зюз676456 0.0 1024457
17:00+9зюз47730 0.0 1023235
20:00+7юз46840 0.0 1021102
27 февраля, сб
сб2723:00+6зюз45880 0.0 102185
02:00+5з34890 0.0 101935
05:00+5зсз34900 0.0 101733
08:00+5зсз36900 0.0 1017163
11:00+10сз46730 0.0 1017474
14:00+11ссз796012 0.0 1017979
17:00+8ссз6968100 0.0 1017951
20:00+6сз4870100 0.0 1018463
28 февраля, вс
вс2823:00+5сз597796 0.1 1019382
02:00+3сз379486 0.1 1019230
05:00+3ссз51087100 0.2 1020558
08:00+3ссз6108578 0.3 1021667
11:00+5ссз687679 0.1 1022840
14:00+5ссз586388 0.2 10221183
17:00+5ссз587298 0.1 1023869
20:00+3ссз488396 0.3 1025446
1 марта, пн
пн123:00+2сз358594 0.1 1025172
02:00+1ссз479293 0.1 1026216
05:000ссз359585 0.0 1026155
08:00+1с358788 0.1 1027339
11:00+4с345844 0.0 10281103
14:00+5ссз345771 0.1 10281053
17:00+4с3461100 0.1 10281030
20:00+2ссв346999 0.2 1030112
2 марта, вт
вт223:00+1св237579 0.0 103138
02:000св237972 0.0 103227
05:000ссв33810 0.0 103277
08:00+1ссв23753 0.0 1033183
11:00+4ссз335335 0.0 1034982
14:00+6зсз455030 0.0 10321024
17:00+4з686811 0.0 1030466
20:00+4з597054 0.0 1030337